[[{"header":{"parameterUnit":"m.s-1","parameterCategory":1,"la1":30.2991,"la2":30.254,"lo1":-89.0895,"lo2":-89.0444,"dy":0.0017,"dx":0.0017,"nx":28,"ny":28,"refTime":"2024-06-25T09:00:00:Z","depth":0,"parameterNumber":2,"parameterNumberName":"U-component_of_WINDS"},"data":[0,0,0,0,0,0,0,0,0,0,0,0,0,0,0,0,0,0,0,0,0,0,0,0,0,0,0,0,0,0,0,0,0,0,0,0,0,0,0,0,0,0,0,0,0,0,0,0,0,0,0,0,0,0,0,0,0,0,3.0759,3.076,0,3.0905,3.0907,3.0909,3.0827,3.0823,3.0819,3.0815,3.0972,3.0979,3.0987,0,0,0,0,0,0,0,0,0,0,0,0,0,3.0413,3.042,3.0759,3.076,3.0762,3.0905,3.0907,3.0909,3.0828,3.0823,3.0818,3.0813,3.0969,3.0978,3.0988,0,0,0,0,0,0,0,0,0,0,0,0,0,3.0562,3.0422,3.0758,3.0739,3.0738,3.0905,3.0907,3.091,3.0829,3.0823,3.0817,3.0811,3.0966,3.0977,3.0989,3.1185,0,0,3.1026,3.1031,0,0,0,0,0,0,0,0,3.0554,3.0575,3.074,3.074,3.074,3.0841,3.0843,3.1002,3.083,3.0795,3.0815,3.0808,3.0934,3.0948,3.0989,3.1192,3.1199,3.1027,3.1034,3.1039,3.1042,0,0,0,0,0,0,0,3.0544,3.0568,3.0817,3.0742,3.0743,3.0724,3.0739,3.0873,3.0897,3.0797,3.0792,3.081,3.0933,3.0978,3.0992,3.1201,3.1026,3.1037,3.1044,3.1049,3.1573,3.158,0,0,0,0,0,0,3.0534,3.056,3.0812,3.0821,3.063,3.0736,3.0752,3.0815,3.0895,3.0901,3.0815,3.0805,3.096,3.0978,3.0997,3.1232,3.1039,3.105,3.1057,3.1567,3.1575,3.1582,0,0,0,0,0,0,3.0527,3.0557,3.0806,3.0689,3.0719,3.0748,3.082,3.0821,3.0866,3.0908,3.0913,3.0856,3.0956,3.098,3.1139,3.1236,3.1056,3.1066,3.1559,3.1569,3.1579,3.1703,0,0,0,0,0,0,3.0517,3.0555,3.0628,3.0691,3.0726,3.0944,3.0826,3.0829,3.0886,3.0875,3.0948,3.0954,3.0953,3.1121,3.1151,3.1249,3.1076,3.155,3.1563,3.1575,3.169,3.1716,3.1738,0,0,0,0,0,3.0505,3.0659,3.0633,3.0663,3.0818,3.095,3.097,3.0963,3.0894,3.0969,3.0996,3.0952,3.1221,3.1138,3.117,3.1274,3.1544,3.156,3.1574,3.168,3.1711,3.1738,0,0,0,0,0,0,3.0609,3.0667,3.0638,3.0817,3.0879,3.0935,3.103,3.0997,3.1081,3.1068,3.1058,3.1076,3.124,3.1273,3.118,3.1468,3.1372,3.1394,3.1441,3.1471,3.1495,3.1484,3.1086,0,0,0,0,0,3.0652,3.0752,3.0798,3.0951,3.0984,3.1002,3.1059,3.1048,3.1113,3.1139,3.1178,3.1244,3.1343,3.1409,3.1502,3.1694,3.171,3.1782,3.1806,3.1825,3.1845,3.1949,3.1982,3.1632,3.1632,3.1632,0,0,3.0744,3.0787,3.0852,3.0973,3.102,3.1125,3.1024,3.114,3.1219,3.1158,3.1308,3.134,3.1413,3.1589,3.1668,3.1621,3.1945,3.1845,3.186,3.1869,3.1969,3.2002,3.2031,3.1642,3.1641,3.1639,0,0,3.0964,3.1006,3.1138,3.1187,3.1258,3.1269,3.1301,3.1363,3.138,3.1531,3.1488,3.1582,3.1753,3.1807,3.1857,3.2097,3.206,3.2128,3.2253,3.2355,3.2383,3.2407,3.2493,3.2524,3.2147,3.2148,3.2148,0,3.1069,3.1224,3.1211,3.133,3.1386,3.1333,3.1467,3.1516,3.1615,3.1655,3.1601,3.1814,3.1859,3.2047,3.2106,3.2148,3.2185,3.212,3.2379,3.2404,3.2427,3.2509,3.2541,3.2155,3.2155,3.2154,3.2153,0,3.135,3.1458,3.1557,3.1651,3.1718,3.1844,3.1853,3.1922,3.1906,3.1923,3.2078,3.2131,3.2234,3.2278,3.2264,3.2464,3.2433,3.2379,3.2282,3.2468,3.2545,3.2576,3.2167,3.2164,3.2161,3.216,0,0,3.164,3.1725,3.1762,3.1804,3.1879,3.1963,3.2088,3.2187,3.2246,3.2317,3.2422,3.2568,3.2518,3.2575,3.2567,3.2656,3.2844,3.2592,3.2593,3.2637,3.3068,3.3108,3.3145,3.2819,3.2825,3.283,3.3062,0,3.1865,3.208,3.2073,3.2275,3.2375,3.2326,3.2435,3.2493,3.2513,3.2603,3.2625,3.2728,3.2655,3.2689,3.2775,3.2802,3.293,3.2786,3.2918,3.2923,3.2902,3.3185,3.3228,3.3445,3.3092,3.3097,3.3101,0,3.2156,3.2234,3.2445,3.2505,3.2547,3.2644,3.2734,3.282,3.2886,3.2894,3.2957,3.2934,3.3062,3.2961,3.3138,3.304,3.3094,3.3116,3.3124,3.3137,3.3024,3.3206,3.3514,3.3546,3.3148,3.3144,3.3141,0,3.2347,3.2505,3.2652,3.269,3.2763,3.2832,3.2866,3.2926,3.2986,3.3065,3.3104,3.3198,3.325,3.3325,3.3329,3.3255,3.3508,3.3407,3.3519,3.352,3.3575,3.3572,3.3897,3.361,3.3609,3.3609,3.3608,0,3.26,3.2731,3.2738,3.2829,3.2975,3.2966,3.3111,3.3139,3.3192,3.3288,3.3252,3.3344,3.3343,3.3437,3.3441,3.3588,3.3612,3.3623,3.3622,3.3626,3.3625,3.3662,3.3647,3.3617,3.3615,3.3614,3.3612,0,3.2838,3.2848,3.3005,3.306,3.3077,3.3183,3.3231,3.3318,3.3333,3.3456,3.3484,3.351,3.3618,3.3629,3.3756,3.3758,3.3935,3.3919,3.3913,3.391,3.4022,3.4011,3.4382,3.4431,3.4112,3.4115,3.4117,0,3.2999,3.3099,3.3164,3.3225,3.3262,3.3361,3.3421,3.3416,3.3481,3.3563,3.364,3.3745,3.3828,3.4003,3.4035,3.4131,3.4117,3.424,3.4132,3.4132,3.412,3.4114,3.4124,3.4262,3.4265,3.4268,3.4271,0,3.3283,3.3283,3.337,3.346,3.3532,3.3603,3.3669,3.3722,3.3725,3.38,3.3909,3.3973,3.4102,3.4206,3.4301,3.4338,3.4306,3.4304,3.4335,3.4341,3.4333,3.4339,3.3971,3.4296,3.4294,3.4292,3.429,3.4289,3.3488,3.3574,3.3634,3.3732,3.3781,3.3844,3.3928,3.3953,3.4043,3.4146,3.4138,3.4259,3.4322,3.4446,3.449,3.4586,3.4545,3.459,3.4602,3.4613,3.4624,3.4317,3.4603,3.4602,3.4602,3.4601,3.4601,0,3.3771,3.3806,3.3897,3.399,3.4068,3.4028,3.4099,3.4168,3.4274,3.4335,3.4417,3.4542,3.4643,3.4682,3.4781,3.485,3.4838,3.4877,3.4872,3.4881,3.4655,3.4618,3.4885,3.4885,3.4885,3.4885,3.4884,3.4884,3.3927,3.4071,3.4078,3.4245,3.428,3.4397,3.4441,3.4499,3.4547,3.4689,3.4772,3.4795,3.4848,3.495,3.5042,3.505,3.5089,3.5134,3.5137,3.4925,3.4897,3.4869,3.4835,3.5142,3.5143,3.5354,3.5356,3.5358]},{"header":{"parameterUnit":"m.s-1","parameterCategory":1,"la1":30.2991,"la2":30.254,"lo1":-89.0895,"lo2":-89.0444,"dy":0.0017,"dx":0.0017,"nx":28,"ny":28,"refTime":"2024-06-25T09:00:00:Z","depth":0,"parameterNumber":3,"parameterNumberName":"V-component_of_WINDS"},"data":[0,0,0,0,0,0,0,0,0,0,0,0,0,0,0,0,0,0,0,0,0,0,0,0,0,0,0,0,0,0,0,0,0,0,0,0,0,0,0,0,0,0,0,0,0,0,0,0,0,0,0,0,0,0,0,0,0,0,-0.0452,-0.0451,0,-0.0341,-0.0339,-0.0338,-0.033,-0.0331,-0.0332,-0.0333,-0.0216,-0.0212,-0.0208,0,0,0,0,0,0,0,0,0,0,0,0,0,-0.0654,-0.0651,-0.0452,-0.0451,-0.0449,-0.0341,-0.0339,-0.0338,-0.0329,-0.0331,-0.0332,-0.0334,-0.0218,-0.0212,-0.0207,0,0,0,0,0,0,0,0,0,0,0,0,0,-0.0557,-0.0649,-0.0452,-0.0432,-0.0429,-0.0341,-0.0339,-0.0337,-0.0329,-0.0331,-0.0333,-0.0334,-0.0219,-0.0213,-0.0207,-0.013,0,0,-0.0187,-0.0184,0,0,0,0,0,0,0,0,-0.0563,-0.055,-0.0436,-0.0433,-0.043,-0.0351,-0.0368,-0.0268,-0.0329,-0.0367,-0.0333,-0.0335,-0.0259,-0.025,-0.0225,-0.0125,-0.012,-0.0187,-0.0183,-0.018,-0.0178,0,0,0,0,0,0,0,-0.0569,-0.0554,-0.0408,-0.0435,-0.0431,-0.0428,-0.0416,-0.0349,-0.0304,-0.0364,-0.0363,-0.035,-0.0258,-0.0231,-0.0222,-0.0118,-0.0187,-0.0181,-0.0177,-0.0175,0.005,0.0052,0,0,0,0,0,0,-0.058,-0.056,-0.0411,-0.0405,-0.0502,-0.0422,-0.0409,-0.0374,-0.0305,-0.0296,-0.0349,-0.035,-0.0241,-0.0229,-0.0218,-0.0123,-0.018,-0.0174,-0.017,0.0048,0.005,0.0053,0,0,0,0,0,0,-0.0585,-0.0567,-0.0416,-0.0482,-0.0463,-0.0417,-0.0378,-0.0371,-0.0344,-0.0293,-0.0285,-0.0329,-0.0242,-0.0227,-0.0152,-0.0119,-0.0171,-0.0165,0.0045,0.0049,0.0052,0.0065,0,0,0,0,0,0,-0.0591,-0.0569,-0.054,-0.0481,-0.0459,-0.0353,-0.0376,-0.0368,-0.0334,-0.0335,-0.0273,-0.0265,-0.0242,-0.0162,-0.0146,-0.0111,-0.016,0.0043,0.0047,0.0051,0.0062,0.0069,0.0074,0,0,0,0,0,-0.0598,-0.054,-0.0538,-0.0521,-0.0422,-0.0351,-0.0338,-0.0314,-0.0331,-0.0301,-0.0269,-0.0267,-0.0126,-0.0154,-0.0136,-0.0099,0.0041,0.0046,0.005,0.0059,0.0067,0.0074,0,0,0,0,0,0,-0.0594,-0.0532,-0.053,-0.0451,-0.0407,-0.035,-0.0311,-0.0307,-0.0256,-0.0259,-0.023,-0.0217,-0.0143,-0.0114,-0.0147,-0.0022,-0.0044,-0.0036,-0.0043,-0.0036,-0.003,-0.0038,-0.0155,0,0,0,0,0,-0.0585,-0.0533,-0.0481,-0.0417,-0.0395,-0.0357,-0.0325,-0.0311,-0.0263,-0.0244,-0.0206,-0.0159,-0.0104,-0.0068,-0.0015,0.0066,0.008,0.01,0.0106,0.0111,0.0118,0.0164,0.0174,0.0068,0.0068,0.0068,0,0,-0.0564,-0.0523,-0.0492,-0.0415,-0.0379,-0.0325,-0.0341,-0.0284,-0.0244,-0.0235,-0.0163,-0.0133,-0.0079,-0.0001,0.0036,0.0026,0.015,0.0117,0.012,0.0125,0.017,0.0179,0.0188,0.0072,0.0071,0.0071,0,0,-0.0498,-0.0463,-0.0405,-0.0369,-0.0314,-0.029,-0.0276,-0.022,-0.02,-0.0128,-0.012,-0.0072,0.0022,0.0061,0.0093,0.0172,0.0176,0.0188,0.022,0.0264,0.0272,0.028,0.0309,0.0319,0.0195,0.0196,0.0196,0,-0.0478,-0.0398,-0.0376,-0.0319,-0.0285,-0.0276,-0.0217,-0.0183,-0.0113,-0.009,-0.0102,0.0016,0.0053,0.014,0.0159,0.0185,0.0202,0.0182,0.0269,0.0277,0.0284,0.0312,0.0323,0.0197,0.0197,0.0196,0.0196,0,-0.0376,-0.0321,-0.0281,-0.0215,-0.0177,-0.0119,-0.0087,-0.0051,-0.004,-0.0014,0.006,0.0105,0.0167,0.0189,0.02,0.0278,0.027,0.0263,0.0241,0.0295,0.0322,0.0333,0.0199,0.0198,0.0198,0.0197,0,0,-0.0304,-0.0228,-0.0213,-0.0183,-0.0123,-0.0079,-0.0021,0.0039,0.007,0.0117,0.0167,0.0246,0.024,0.0276,0.0292,0.033,0.0391,0.0319,0.032,0.0331,0.048,0.0485,0.0497,0.0393,0.0395,0.0397,0.0475,0,-0.0231,-0.0128,-0.0106,-0.0017,0.0035,0.0043,0.0094,0.0137,0.0163,0.0211,0.024,0.0295,0.0283,0.0304,0.0343,0.0375,0.0421,0.037,0.0441,0.0443,0.0428,0.0511,0.0517,0.0589,0.0486,0.0488,0.0489,0,-0.0132,-0.0083,0.0011,0.0064,0.0087,0.0132,0.0189,0.0235,0.0284,0.03,0.0339,0.0351,0.0413,0.0387,0.0473,0.0437,0.0467,0.0488,0.0491,0.05,0.047,0.0523,0.0613,0.0624,0.0506,0.0504,0.0503,0,-0.0087,0.0002,0.007,0.0095,0.0159,0.019,0.0218,0.0265,0.03,0.035,0.0373,0.0429,0.046,0.0504,0.0531,0.0509,0.0615,0.0591,0.0631,0.063,0.0654,0.0652,0.0751,0.0671,0.0671,0.0671,0.0671,0,-0.0007,0.005,0.009,0.0132,0.0197,0.0221,0.0285,0.0313,0.0355,0.0403,0.0414,0.0459,0.0491,0.0541,0.0562,0.063,0.0644,0.066,0.0665,0.0659,0.0657,0.068,0.0677,0.0674,0.0673,0.0673,0.0672,0,0.0054,0.0083,0.0157,0.0211,0.0226,0.0271,0.0318,0.0359,0.0384,0.0445,0.0461,0.0501,0.056,0.0591,0.0665,0.0679,0.0756,0.0758,0.0739,0.0741,0.078,0.0776,0.0898,0.0915,0.0823,0.0824,0.0824,0,0.0103,0.0148,0.0206,0.0238,0.0267,0.0319,0.0354,0.038,0.0416,0.0475,0.0509,0.0568,0.0617,0.0712,0.0748,0.0805,0.0808,0.0847,0.0817,0.081,0.081,0.0808,0.0812,0.0853,0.0854,0.0854,0.0855,0,0.0189,0.0201,0.025,0.0305,0.0346,0.0391,0.0435,0.0461,0.0494,0.0534,0.0594,0.0632,0.0707,0.0766,0.0825,0.0855,0.0861,0.0864,0.0876,0.0872,0.0859,0.0867,0.0755,0.0861,0.0861,0.086,0.086,0.086,0.0246,0.0286,0.0333,0.0388,0.0423,0.0464,0.0506,0.0536,0.0586,0.0648,0.066,0.0724,0.0772,0.0852,0.0883,0.0934,0.0926,0.0944,0.0949,0.0953,0.0955,0.085,0.0945,0.0945,0.0945,0.0945,0.0944,0,0.0333,0.0363,0.0413,0.0474,0.0517,0.0517,0.0566,0.0603,0.0658,0.0702,0.075,0.0819,0.0876,0.0916,0.0974,0.1007,0.1011,0.1022,0.102,0.1027,0.0958,0.0942,0.1018,0.1018,0.1017,0.1017,0.1017,0.1017,0.0383,0.0451,0.0468,0.0553,0.0584,0.0645,0.0673,0.0711,0.0746,0.0822,0.0869,0.0895,0.0938,0.0999,0.1051,0.1062,0.1083,0.1094,0.1104,0.104,0.1032,0.1025,0.101,0.1098,0.1098,0.1169,0.117,0.117]}]]